Location: Chervonnoye
(48.6000°N, 34.4000°E)
Time: 15:15:05
(UTC+00:00)

ARGOS - Pass Details

Date: 23 November 2020
Orbit: 820 x 834 km, 98.4° (Epoch: 28 January)

Event Time Altitude Azimuth Distance (km) Brightness Sun altitude
Exits shadow 15:34:09 24° 61° (ENE) 1,663 4.2 -16.1°
Maximum altitude 15:34:15 24° 60° (ENE) 1,663 4.2 -16.1°
Drops below altitude 10° 15:38:30 10° 8° (N) 2,449 5.4 -16.8°
Sets 15:41:15 0° 355° (N) 3,385 6.3 -17.2°
